Regional Weather Roundup
Issued by NWS

Home | Current Version | Previous Version | Text Only | Print | Product List | Glossary On
Versions: 1 2 3 4 5 6 7 8 9 10 11 12 13 14 15 16 17 18 19 20 21 22 23 24 25 26 27 28 29 30 31 32 33 34 35 36 37 38 39 40 41 42 43 44 45 46 47 48 49 50
000
ASUS43 KDTX 240801
RWRMI
MICHIGAN HOURLY REGIONAL WEATHER ROUNDUP
NATIONAL WEATHER SERVICE DETROIT/PONTIAC MI
400 AM EDT TUE MAY 24 2016

NOTE: "FAIR" INDICATES FEW OR NO CLOUDS BELOW 12,000 FEET WITH NO
SIGNIFICANT WEATHER AND/OR OBSTRUCTION TO VISIBILITY.

MIZ047>049-052>055-059>063-066>070-074>076-081>083-240900-
SOUTHEAST LOWER MICHIGAN

CITY           SKY/WX    TMP DP  RH WIND       PRES   REMARKS
ADRIAN         CLEAR     48  44  86 CALM      30.01S
ALMA           CLEAR     45  42  90 SW7       29.98S
ANN ARBOR      CLEAR     42  42 100 W3        30.00S FOG
BAD AXE        CLEAR     52  39  61 S5        29.97S
CARO           CLEAR     43  40  88 CALM      29.97S
DETROIT CITY   CLEAR     53  46  77 CALM      30.00S
DETROIT        PTCLDY    55  50  83 S3        30.00F
FLINT          CLEAR     49  42  77 CALM      29.99S
GROSSE ILE     CLEAR     55  52  88 CALM      29.99S
HILLSDALE      CLEAR     49  41  73 CALM      30.01R
HOWELL         CLEAR     50  44  79 CALM      30.00S

CITY           SKY/WX    TMP DP  RH WIND       PRES   REMARKS
JACKSON        CLEAR     47  42  83 SW3       30.00S
LAMBERTVILLE   CLEAR     50  48  93 CALM      30.00F
LANSING        CLEAR     53  37  54 CALM      30.00R
LAPEER         NOT AVBL
MASON          CLEAR     50  40  70 S9        30.00R
MONROE         CLEAR     48  48 100 CALM      29.99F
PONTIAC        CLEAR     49  45  86 CALM      29.99F
PORT HOPE        N/A     61  37  41 SW8       29.95R
PORT HURON     CLEAR     45  45 100 CALM      29.99F FOG
TRI CITIES     CLEAR     57  41  55 SW7       29.99R
MIDLAND        FAIR      45  44  95 CALM      29.97S
TROY           CLEAR     56  46  69 CALM      30.01F
SAGINAW HB     CLEAR     52  37  58 SW5       29.97S
$$
MIZ043>046-050>051-056>058-064>065-071>073-077>080-240900-
SOUTHWEST LOWER MICHIGAN

CITY           SKY/WX    TMP DP  RH WIND       PRES   REMARKS
BATTLE CREEK   CLEAR     53  39  59 CALM      30.00S
BENTON HARBOR  CLEAR     59  36  42 S5        29.97S
BIG RAPIDS     CLEAR     47  44  90 CALM      29.97S
COLDWATER      CLEAR     48  44  88 SE3       30.00S
FREMONT        FAIR      53  43  69 CALM      29.96S
HOLLAND        CLEAR     56  38  50 S6        29.97S
GRAND RAPIDS   CLEAR     56  40  55 S5        29.98S
IONIA          FAIR      56  36  46 S5        29.98S
KALAMAZOO      CLEAR     52  39  61 CALM      29.99S
LUDINGTON      CLEAR     63  37  37 S6        29.93S
MARSHALL       CLEAR     49  40  70 CALM      29.99S
MOUNT PLEASANT CLEAR     48  47  95 CALM      29.97S
MUSKEGON       CLEAR     57  39  51 SE7       29.96S
SOUTH HAVEN    CLEAR     56  38  52 CALM      29.97S
$$
MIZ016>042-240900-
NORTHERN LOWER MICHIGAN

CITY           SKY/WX    TMP DP  RH WIND       PRES   REMARKS
ALPENA         CLEAR     45  41  86 CALM      29.95S
BEAVER ISLAND  CLEAR     63  35  35 S8        29.89F
BELLAIRE       CLEAR     46  44  93 CALM      29.93S
CADILLAC       CLEAR     44  39  83 CALM      29.96S
CHARLEVOIX     CLEAR     60  40  46 S3        29.94S
FRANKFORT      CLEAR     69  38  31 S9        29.91F
GAYLORD        CLEAR     55  41  59 CALM      29.95S
GRAYLING       CLEAR     41  39  91 CALM      29.97S
HARBOR SPRINGS CLEAR     50  41  71 CALM      29.92S
HOUGHTON LAKE  CLEAR     45  43  93 CALM      29.97S
MANISTEE       CLEAR     46  37  71 NE5       29.94S
OSCODA         CLOUDY    48  41  76 CALM      29.95S
PELLSTON       CLEAR     45  39  79 E3        29.91S
ROGERS CITY    CLEAR     47  40  76 CALM      29.93S
TRAVERSE CITY  CLEAR     62  37  39 VRB3      29.91F
$$
MIZ007>008-015-240900-
EASTERN UPPER MICHIGAN

CITY           SKY/WX    TMP DP  RH WIND       PRES   REMARKS
KINROSS          N/A     46  39  76 SE8       29.90F
MACKINAC ISLAN CLEAR     54  43  67 S7        29.90S
NEWBERRY       PTCLDY    56  39  52 SW8       29.89S
S. S. MARIE    CLEAR     50  41  71 NE3       29.91R
MUNISING         N/A     56  42  59 CALM      29.85F
$$
MIZ004>006-011>014-085-240900-
CENTRAL UPPER MICHIGAN

CITY           SKY/WX    TMP DP  RH WIND       PRES   REMARKS
MANISTIQUE     CLOUDY    55  42  62 S10G16    29.88S
ESCANABA       CLOUDY    61  43  51 CALM      29.86S
MENOMINEE      CLEAR     63  45  51 SW6       29.87S
SAWYER-GWINN   CLOUDY    57  45  63 S7        29.85F
$$
MIZ001>003-009>011-084-240900-
WESTERN UPPER MICHIGAN

CITY           SKY/WX    TMP DP  RH WIND       PRES   REMARKS
IRON MOUNTAIN  MOCLDY    61  48  62 SE3       29.85S
HOUGHTON       CLOUDY    63  58  83 S3        29.81S
COPPER HARBOR    N/A     63  58  83 CALM      29.81R
IRONWOOD       CLOUDY    59  59 100 SE5       29.80F
$$

ABBREVIATIONS USED IN REMARKS
   TC - TEMPERATURE IN CELSIUS
  WCI - WIND CHILL INDEX
   HX - HEAT INDEX
  VSB - VISIBILITY




USA.gov is the U.S. government's official web portal to all federal, state and local government web resources and services.